Vorticity
4 5 6 6 6 6 5 5 5 5 5 5 4 3 3 3 3 3 3 3 3 3 3 3 3 3 3 2 3 2 2 4 4 4 4 3 2 2 2 2 4 3 6 8 14 13 1 4 10 9 17 16 16 15 8 8 2 2 8 8 4 -0 3 5 6 5 2 6 8 5 6 7 7 8 7 7 8 7 4 4 4 5 6 7 8 10 9 5
6 5 5 4 3 3 2 2 2 3 3 2 3 2 2 3 2 3 3 3 3 3 3 4 3 3 4 3 3 3 3 4 3 4 4 4 4 3 2 3 2 2 7 6 13 12 -1 14 13 2 15 13 16 17 8 9 6 5 4 6 6 -0 4 7 5 6 5 4 7 7 6 7 7 6 9 7 7 9 5 5 5 4 6 7 7 8 10 7
5 4 3 2 1 1 1 2 2 3 3 3 4 3 4 4 4 4 4 4 4 4 4 4 4 4 4 3 4 3 4 4 3 5 4 4 4 4 3 3 1 1 8 6 10 11 8 22 7 -0 17 11 14 18 12 11 7 9 6 5 10 4 4 8 8 5 2 3 6 8 5 6 7 5 10 9 7 8 6 5 4 4 5 7 8 7 8 8
4 3 2 1 1 1 3 4 5 6 6 6 6 6 6 5 5 5 5 5 5 5 5 5 5 5 5 4 5 4 5 5 4 5 4 3 4 5 4 3 3 2 5 6 8 9 12 17 6 4 9 7 15 15 14 13 6 11 10 5 8 4 3 10 13 5 1 4 4 8 5 4 8 5 6 7 6 6 6 6 5 4 6 6 7 7 5 6
3 2 2 2 3 5 6 7 7 7 6 6 5 4 4 3 3 3 3 3 3 4 4 5 5 5 5 5 5 5 5 5 5 6 4 3 4 4 5 3 4 2 4 7 6 8 10 7 11 14 5 9 19 13 13 13 8 12 11 7 7 6 5 9 11 3 2 5 2 8 7 4 8 6 4 4 5 8 8 8 7 4 5 6 6 7 4 5
4 4 5 5 7 7 7 6 5 4 4 3 2 2 2 2 2 2 3 3 3 3 3 3 3 3 4 4 5 5 5 5 6 6 4 4 5 4 5 4 5 2 2 7 4 6 9 3 13 19 8 10 12 10 14 13 13 14 9 9 8 9 8 7 8 2 1 6 6 8 6 4 7 6 5 5 3 5 8 9 9 5 4 5 5 6 5 6
6 7 6 6 6 4 3 3 2 2 1 1 1 2 1 2 2 2 3 3 3 3 3 3 3 3 3 3 3 3 4 5 6 6 5 5 5 6 5 3 5 2 2 9 4 2 11 10 13 14 9 12 8 7 13 9 13 14 9 10 8 8 9 9 11 6 2 8 9 5 5 4 5 7 6 5 4 5 7 7 9 7 5 4 3 5 6 6
4 4 3 2 2 1 1 1 0 1 1 1 1 1 1 2 2 2 3 4 3 4 5 4 4 5 5 5 4 4 5 6 6 5 6 6 6 7 5 3 6 3 3 11 8 1 9 9 9 10 11 15 7 6 12 5 9 17 15 15 13 10 7 5 7 5 4 12 11 5 7 5 3 8 7 5 5 6 7 7 8 7 7 4 2 4 6 7
2 1 1 1 1 1 1 1 1 1 1 2 2 3 3 4 4 5 5 5 5 5 6 5 6 6 6 6 5 6 6 5 5 4 5 6 7 6 3 4 6 4 3 6 7 4 7 5 5 9 10 13 7 8 14 5 5 15 14 14 16 15 10 4 4 4 5 13 12 5 8 6 4 7 7 7 4 5 8 8 7 7 8 7 5 4 5 8
1 1 1 1 1 1 1 2 2 3 4 4 6 6 7 8 7 7 7 7 6 5 5 4 4 4 4 4 4 6 5 4 5 4 5 5 6 6 4 6 6 4 4 5 4 3 6 6 5 6 8 12 10 9 13 9 7 10 10 11 13 14 12 7 7 7 6 12 10 4 6 4 4 6 5 8 5 6 10 10 7 6 9 8 7 6 5 7
2 2 2 2 2 3 4 5 7 7 8 8 8 9 8 7 6 5 4 3 3 2 3 2 3 3 3 3 4 6 5 4 5 4 5 4 5 6 5 6 6 4 5 6 6 5 6 7 5 6 8 8 8 10 9 6 6 10 11 9 12 15 14 10 8 9 6 8 6 5 10 5 2 2 4 9 4 4 8 9 9 6 8 8 7 8 6 7
2 3 4 5 7 8 9 9 9 8 8 7 6 5 4 3 3 2 2 3 4 4 4 5 5 5 5 6 5 6 5 5 5 5 5 5 6 6 6 6 6 6 5 4 6 5 4 6 5 5 7 4 5 10 9 6 9 14 10 7 11 14 18 16 8 10 8 8 9 6 9 8 5 2 3 7 3 4 6 6 9 8 7 9 8 7 6 8
6 7 8 9 9 8 7 6 5 5 4 4 4 4 5 6 7 7 8 9 9 10 9 9 9 8 9 9 7 7 7 7 5 5 6 6 6 5 6 7 6 5 5 4 6 6 4 5 4 3 5 4 6 9 8 7 6 7 8 10 10 4 16 24 12 7 9 10 11 7 7 9 7 5 4 6 5 7 6 5 9 8 8 10 8 7 8 9
9 9 8 7 6 6 5 5 6 6 6 7 8 10 12 12 13 13 13 13 13 13 11 11 10 10 11 9 10 11 10 10 7 3 6 7 7 6 6 6 5 5 5 5 7 7 6 5 5 5 5 5 5 5 5 7 3 3 8 13 11 1 6 22 19 9 7 7 8 6 8 8 6 7 6 4 7 11 9 5 5 7 8 9 9 9 10 10
7 6 6 6 7 8 9 10 10 10 11 13 13 14 14 14 14 14 13 13 13 13 12 12 10 10 11 8 12 13 9 12 10 5 6 7 7 7 5 4 5 5 4 4 5 5 7 7 5 4 6 7 5 2 4 6 2 2 8 9 11 8 5 16 22 16 9 4 5 8 8 6 4 8 11 6 4 7 10 6 3 7 10 7 7 8 10 11
6 8 10 11 13 14 14 14 14 15 14 14 14 14 13 12 13 12 12 12 11 12 11 12 11 11 11 9 10 10 9 14 14 10 9 7 7 8 7 6 5 5 4 4 4 6 7 5 4 4 6 8 6 5 3 1 1 9 17 10 6 10 8 6 12 21 21 11 6 8 7 7 5 3 8 11 6 3 7 7 3 6 9 6 6 8 10 12
12 15 16 16 16 15 15 14 13 12 11 10 10 10 10 9 9 8 8 7 8 8 7 9 11 10 11 13 12 9 9 13 12 10 9 7 7 8 8 8 6 5 5 4 4 5 4 2 3 6 6 6 5 7 10 8 6 13 17 6 3 12 11 5 7 18 24 21 16 9 3 5 7 1 0 7 11 8 6 6 6 5 7 7 5 6 8 11
17 17 15 14 12 11 10 9 8 7 7 7 6 6 7 6 6 6 5 6 6 6 6 9 8 5 6 9 9 8 10 11 10 8 8 8 7 8 10 9 7 5 4 4 4 4 4 3 4 4 3 5 4 2 8 8 -0 3 7 4 7 9 7 9 9 7 11 18 22 17 13 10 8 4 3 7 12 11 6 4 6 4 4 6 5 6 7 8
15 12 11 9 8 8 7 6 5 5 5 5 6 6 7 7 8 8 7 8 8 6 8 8 5 3 4 5 5 8 9 10 10 9 9 8 6 7 9 9 9 7 5 3 3 4 3 4 3 3 3 5 7 2 2 5 2 5 7 5 7 5 6 10 6 3 6 10 13 16 19 19 15 9 2 4 9 11 8 4 8 9 5 5 5 6 7 6
10 9 9 7 7 5 4 5 5 6 7 7 8 8 8 8 9 9 8 10 9 7 9 10 8 6 5 6 9 8 6 7 9 10 11 10 8 7 7 8 9 10 8 4 3 4 2 3 4 4 3 4 7 6 5 7 6 7 5 2 5 7 12 10 4 9 9 5 12 15 17 19 20 18 10 4 8 13 11 6 9 12 8 5 3 7 8 6
8 8 6 6 5 4 6 7 7 9 10 9 10 9 8 9 10 8 8 10 9 7 8 11 11 8 5 8 12 9 6 7 9 10 11 11 10 8 7 8 8 9 11 6 4 4 1 3 5 4 4 3 2 1 4 8 9 8 6 5 5 5 9 7 2 10 9 5 12 12 13 17 12 15 17 9 9 14 13 10 6 9 17 13 4 6 8 6
8 6 6 6 6 7 9 9 10 10 8 9 8 7 8 8 7 7 8 8 8 8 7 8 10 8 6 8 11 13 11 9 9 9 9 10 11 10 8 8 7 8 10 9 6 5 4 3 4 4 5 5 3 2 5 9 11 9 6 6 5 2 5 7 6 7 6 8 12 4 5 18 14 12 17 12 13 16 13 11 7 11 23 14 1 6 7 5
8 7 8 9 8 10 10 9 9 7 7 8 6 7 7 5 6 6 7 6 7 9 7 7 10 10 10 11 11 14 12 8 8 9 9 10 10 12 10 9 9 8 8 10 8 6 5 4 6 6 5 4 3 4 5 6 7 6 7 7 6 8 7 7 10 8 5 5 7 3 0 13 17 12 14 14 13 14 10 8 7 13 19 8 -0 5 5 4
9 9 10 10 9 9 8 8 8 6 7 6 5 7 5 5 7 5 6 4 5 14 13 9 12 11 11 11 11 13 12 10 13 13 13 14 13 13 12 10 11 9 9 11 11 10 7 5 4 4 8 7 1 2 2 3 8 6 7 5 3 8 6 3 7 3 8 12 9 9 7 7 12 15 20 17 8 9 13 11 7 8 15 11 6 6 3 5
10 10 9 8 8 8 7 7 6 6 6 5 5 6 5 8 6 4 7 2 3 17 15 8 10 9 9 12 12 13 12 13 15 11 9 12 11 12 13 12 11 10 9 9 10 11 9 9 6 1 8 10 3 6 5 4 8 5 5 8 8 8 -0 1 8 1 6 11 1 5 12 7 6 12 20 16 6 6 11 16 13 9 11 11 8 10 8 3
8 8 8 7 8 8 7 6 6 6 5 5 5 6 6 7 7 8 6 -0 4 13 9 9 13 9 11 16 13 13 13 13 17 13 14 18 16 14 14 11 11 11 9 10 15 14 7 9 12 4 4 9 6 8 10 6 4 4 7 8 8 9 4 6 9 2 4 9 3 3 10 8 3 6 12 10 7 9 9 12 14 12 12 13 10 8 8 1
7 7 7 7 8 7 6 5 6 5 4 5 5 6 7 6 8 8 3 3 4 3 4 11 13 8 11 15 16 20 15 11 20 19 12 15 15 15 15 12 12 12 11 9 11 14 10 5 8 6 2 3 1 -2 4 9 6 3 5 8 7 4 2 5 6 5 8 14 15 8 3 7 11 12 8 -1 1 15 21 18 15 13 11 14 16 10 7 3
7 7 7 7 7 6 6 5 6 5 4 6 5 5 7 7 8 6 5 11 6 2 6 9 12 14 14 15 18 22 14 15 31 25 12 15 17 14 13 13 13 13 13 11 7 10 15 14 14 15 10 5 3 0 1 9 13 8 3 6 13 11 5 4 4 9 10 5 5 10 10 7 8 11 6 -2 1 11 21 21 14 15 14 12 16 13 9 8
7 7 6 6 6 6 6 5 5 5 4 5 4 5 6 7 8 6 6 10 5 4 8 8 13 15 14 15 18 22 18 18 22 6 -1 14 19 16 15 14 14 12 10 11 12 6 3 11 18 17 14 9 10 12 3 -4 1 10 9 2 5 14 11 5 5 7 7 3 2 11 14 3 1 7 5 4 9 12 20 25 16 12 13 12 17 16 8 10
7 7 6 5 6 7 6 5 5 5 4 5 4 5 7 7 7 7 10 10 1 3 14 9 5 16 23 18 25 32 19 18 27 14 7 11 8 11 17 15 13 13 10 8 11 7 -6 -4 7 8 5 4 6 12 9 -1 -7 -4 5 4 2 8 7 3 5 5 6 9 9 9 9 5 4 8 12 13 14 19 19 17 17 15 13 10 13 21 15 8
6 6 6 5 6 7 7 5 5 5 4 5 4 5 8 6 6 11 13 11 4 7 16 3 -3 19 22 9 23 25 1 12 38 35 31 28 14 12 16 16 16 15 15 11 8 14 9 -2 -0 1 -3 -2 2 3 3 5 4 -1 1 5 5 8 9 5 4 6 9 8 8 12 10 8 6 4 11 8 3 15 13 2 10 15 14 14 9 13 18 12
6 6 6 5 4 6 7 5 5 5 3 5 4 6 9 4 7 14 6 4 11 11 6 -3 2 15 9 10 31 23 3 15 21 12 21 25 18 17 15 15 17 14 17 18 15 19 18 10 7 3 -1 2 9 9 4 1 4 8 5 3 4 6 8 8 7 8 8 5 9 14 9 8 9 1 3 4 -1 5 5 3 13 11 9 15 11 8 12 14
7 6 5 5 5 6 6 5 6 5 4 6 4 6 9 4 8 14 2 0 14 16 9 8 12 15 16 19 20 14 15 14 1 2 14 14 17 22 21 18 12 10 18 19 18 18 13 15 20 19 14 9 9 10 8 8 11 13 10 6 6 5 4 5 7 8 9 12 14 14 11 11 11 3 1 10 12 6 3 4 4 0 3 10 11 11 11 14
7 7 5 5 6 6 6 6 6 4 4 5 5 6 8 5 6 11 7 4 11 17 15 12 13 25 32 20 8 13 19 10 5 18 19 9 12 15 16 21 12 10 18 10 10 17 14 11 12 20 29 22 19 17 8 9 15 13 15 14 8 5 5 4 4 6 12 17 13 12 14 11 14 18 8 2 5 5 14 19 6 -2 4 5 5 7 10 17
6 7 6 5 6 6 6 7 5 4 5 5 5 5 7 8 5 7 10 8 10 16 14 16 23 29 22 11 15 17 11 12 10 16 23 9 3 11 13 16 14 16 19 5 2 11 12 14 7 6 21 22 23 30 16 3 1 4 16 19 11 7 4 3 2 0 5 8 6 10 12 5 6 14 12 10 15 13 11 9 2 4 9 5 3 3 3 12
6 7 6 5 7 6 6 7 4 4 5 4 5 6 6 9 6 5 10 9 11 15 15 23 28 20 7 1 12 12 8 21 11 3 24 13 -0 15 16 9 7 10 16 5 6 11 -0 14 22 4 13 22 17 24 25 12 -3 -4 11 15 12 13 6 2 2 -2 4 7 2 5 10 9 7 11 16 11 5 8 7 0 -2 5 12 10 7 8 7 9
7 7 5 6 7 5 6 7 4 5 5 3 9 8 2 7 7 5 10 10 12 15 16 22 17 14 21 11 7 11 8 17 14 9 23 17 8 14 13 17 9 4 14 1 3 14 -5 10 29 -1 3 26 15 11 22 24 8 -9 3 16 16 13 5 1 2 2 10 12 8 9 10 9 11 20 25 5 -6 8 11 4 7 7 9 14 11 8 8 7
7 7 6 6 6 6 7 6 4 5 5 3 8 8 1 7 10 6 9 11 14 15 14 22 15 4 17 13 -1 3 6 4 3 4 10 10 10 6 6 20 5 -3 20 7 -3 9 -3 17 33 -4 -3 24 20 17 20 25 22 -4 -12 7 19 17 7 2 2 2 6 9 11 14 11 9 7 9 15 5 -1 8 5 3 14 11 7 14 16 11 8 8
8 6 6 6 6 7 7 6 5 5 6 4 6 8 4 7 9 7 10 10 14 19 11 18 22 3 4 12 0 1 17 19 5 4 14 10 8 10 12 19 7 2 17 10 7 13 -2 9 21 1 8 18 7 14 17 18 31 15 -14 -14 8 22 16 10 10 7 2 1 8 12 8 12 13 8 14 16 2 -3 4 11 12 11 10 11 14 12 8 9
8 6 6 6 6 8 6 5 6 4 6 5 4 8 6 6 8 7 10 9 11 22 15 12 21 12 6 15 12 9 14 15 6 9 18 10 4 11 10 10 9 9 11 3 8 20 6 1 10 4 4 8 4 11 15 14 23 28 9 -15 -10 13 16 11 12 13 8 -1 3 12 8 10 21 15 5 10 11 9 16 17 8 8 10 7 11 13 10 12
8 6 6 7 6 8 6 5 6 4 6 6 5 8 7 6 9 7 10 13 10 15 18 15 16 13 11 11 12 13 8 7 11 12 14 11 6 11 16 17 10 4 11 9 4 14 14 6 12 7 -6 4 18 17 19 20 9 16 27 5 -13 -2 7 8 6 7 14 9 3 9 8 10 24 20 -3 -10 1 9 12 12 9 6 6 12 18 14 9 12
8 6 6 7 7 7 6 6 7 4 4 5 5 7 8 7 9 9 9 13 13 12 13 16 14 12 15 13 9 9 8 9 12 11 15 15 7 6 13 21 19 6 7 15 9 8 12 11 11 6 -6 -0 7 -2 13 36 15 -1 19 21 2 -5 -3 4 4 0 7 10 3 2 6 8 7 7 6 2 3 9 11 8 9 7 4 9 17 13 8 10
8 7 6 6 7 7 6 7 8 4 2 6 6 6 9 8 7 11 11 10 14 15 12 14 17 13 12 14 12 9 9 10 8 11 15 9 8 14 8 8 20 16 4 11 20 14 11 16 14 -2 -15 -3 10 0 7 36 27 -2 3 17 16 10 4 1 1 1 4 8 8 7 10 11 3 -4 -5 -6 -3 11 18 14 10 8 2 -0 8 9 4 8
8 7 6 6 7 7 6 6 6 5 4 6 7 6 9 10 7 9 12 11 13 15 13 13 16 14 11 12 14 11 11 10 8 11 11 7 18 29 20 12 16 18 11 10 28 35 17 10 17 6 -12 -5 11 5 2 22 24 5 2 9 12 12 8 1 -0 -1 -1 -0 2 7 10 9 7 4 -2 -5 5 14 15 15 12 8 9 11 13 14 11 13
7 7 6 6 7 7 6 6 4 4 5 6 7 7 8 9 8 9 11 12 14 14 14 15 15 14 12 12 14 13 12 12 10 13 12 12 15 11 13 18 9 9 17 14 28 46 24 4 14 15 1 -6 -4 3 16 20 8 1 7 10 12 15 10 4 6 5 4 3 2 4 7 2 -2 3 6 8 16 17 9 10 14 10 9 9 7 11 18 17
7 7 6 5 7 7 6 6 5 4 5 6 7 8 8 6 8 11 10 11 14 13 14 17 15 12 12 13 14 13 12 12 12 13 12 11 11 7 19 32 17 3 11 13 20 31 19 8 15 15 9 2 -4 4 21 14 -3 3 13 5 6 21 20 7 3 10 11 9 13 16 14 9 2 5 15 15 16 20 14 8 11 10 9 11 10 10 15 13
7 8 6 5 7 7 6 5 5 5 5 6 7 8 8 7 7 10 11 11 13 12 15 19 14 10 11 12 13 12 13 14 12 11 14 14 13 11 11 16 15 9 9 10 15 23 20 12 12 14 13 10 3 2 9 9 3 11 20 9 -3 4 15 9 0 6 9 3 6 11 13 18 10 -0 7 14 14 18 16 9 5 2 5 8 5 7 12 12
8 8 6 6 7 7 6 5 5 5 6 7 8 8 7 8 8 9 10 12 14 12 13 16 14 12 11 10 12 13 12 14 11 9 16 17 16 16 8 6 14 16 12 9 10 21 28 18 10 13 12 11 11 6 5 6 2 8 20 19 8 1 4 7 2 1 4 5 3 -1 3 15 11 1 4 12 16 18 12 7 5 4 7 6 3 4 5 7
8 7 6 6 7 6 6 6 5 5 7 7 8 8 7 7 9 11 10 10 14 15 13 13 14 13 11 10 13 12 9 11 13 11 14 15 14 15 12 11 16 14 11 11 9 17 29 24 13 10 9 11 13 10 3 -9 -13 5 11 2 11 21 10 3 6 2 1 6 5 3 10 16 18 20 19 10 10 15 9 2 6 12 10 7 9 6 -2 7
7 6 6 6 8 7 6 6 5 5 7 8 8 8 8 8 8 10 11 11 13 14 14 14 13 12 12 11 10 9 8 10 11 11 14 16 15 13 12 13 17 16 13 10 9 13 21 25 22 14 9 12 15 14 6 -12 -20 -3 -3 -17 3 28 18 8 10 6 7 9 4 5 11 12 11 10 6 -1 -3 9 19 13 11 19 14 5 8 6 -1 10
7 7 7 7 7 7 6 6 5 6 7 8 8 8 7 8 9 8 10 12 13 14 15 14 13 13 12 13 12 10 9 9 9 12 15 16 14 12 14 15 13 16 16 13 14 11 8 18 29 23 12 11 17 16 4 -6 -8 -5 -8 -9 9 23 20 21 20 10 9 11 6 8 8 3 2 -0 3 11 3 5 28 26 8 9 8 5 10 10 8 12
8 7 8 8 7 6 6 6 5 6 7 7 8 8 7 8 9 9 9 11 13 14 15 14 15 15 13 14 13 11 10 9 8 10 14 17 15 11 13 15 12 12 12 13 18 13 6 16 29 25 14 12 21 20 6 -1 0 1 -1 -4 3 14 11 9 16 15 14 12 7 9 9 1 2 4 9 17 7 3 22 23 6 4 3 5 9 7 9 14
Height
5916 5916 5916 5917 5917 5917 5917 5918 5918 5918 5918 5918 5918 5918 5918 5918 5917 5917 5917 5916 5916 5916 5915 5915 5914 5914 5914 5913 5913 5912 5911 5911 5910 5909 5909 5908 5907 5906 5905 5904 5903 5902 5901 5900 5899 5897 5897 5897 5896 5896 5896 5895 5896 5896 5897 5897 5898 5901 5902 5901 5901 5902 5901 5903 5905 5905 5905 5905 5905 5905 5906 5906 5906 5906 5906 5907 5907 5907 5907 5907 5906 5906 5906 5907 5906 5907 5907 5907
5916 5916 5917 5917 5917 5918 5918 5918 5918 5918 5918 5918 5918 5918 5918 5918 5917 5917 5917 5916 5916 5916 5915 5915 5915 5914 5914 5913 5913 5912 5912 5911 5910 5910 5909 5908 5908 5907 5906 5905 5904 5903 5902 5901 5900 5897 5896 5896 5896 5896 5896 5895 5895 5896 5897 5897 5898 5900 5901 5900 5901 5902 5902 5904 5904 5904 5905 5905 5905 5905 5906 5906 5906 5906 5906 5907 5907 5907 5908 5907 5907 5907 5906 5907 5907 5908 5908 5908
5916 5917 5917 5917 5918 5918 5918 5918 5918 5918 5918 5918 5918 5918 5918 5917 5917 5917 5917 5916 5916 5916 5915 5915 5914 5914 5914 5913 5913 5912 5912 5911 5910 5910 5909 5909 5908 5907 5907 5906 5905 5904 5903 5902 5900 5897 5896 5896 5896 5896 5896 5894 5894 5895 5896 5897 5897 5899 5901 5901 5901 5902 5903 5904 5903 5904 5905 5906 5905 5905 5906 5906 5906 5906 5906 5907 5907 5908 5908 5908 5908 5907 5907 5907 5907 5908 5909 5909
5917 5917 5917 5918 5918 5918 5918 5918 5918 5918 5918 5918 5918 5918 5917 5917 5917 5917 5916 5916 5916 5915 5915 5915 5914 5914 5913 5913 5912 5912 5912 5911 5911 5910 5909 5909 5908 5908 5907 5906 5905 5905 5904 5903 5901 5898 5897 5897 5897 5896 5896 5895 5895 5895 5896 5896 5897 5899 5901 5901 5901 5902 5903 5904 5904 5905 5905 5905 5905 5906 5906 5906 5906 5906 5906 5907 5907 5907 5908 5908 5908 5908 5908 5907 5908 5908 5909 5909
5917 5917 5918 5918 5918 5918 5918 5918 5918 5918 5918 5918 5918 5917 5917 5917 5917 5916 5916 5916 5915 5915 5915 5914 5914 5913 5913 5912 5912 5912 5911 5911 5910 5910 5909 5909 5908 5908 5907 5907 5906 5905 5904 5903 5900 5899 5898 5898 5899 5897 5896 5896 5896 5896 5896 5896 5897 5900 5900 5900 5901 5901 5902 5903 5904 5904 5905 5905 5905 5905 5905 5906 5906 5906 5906 5906 5906 5907 5908 5908 5909 5909 5908 5908 5908 5908 5909 5910
5917 5917 5918 5918 5918 5918 5918 5918 5918 5918 5918 5918 5917 5917 5917 5916 5916 5916 5916 5915 5915 5914 5914 5913 5913 5913 5912 5912 5912 5911 5911 5910 5910 5909 5909 5909 5908 5908 5908 5907 5906 5905 5904 5902 5900 5900 5899 5900 5901 5898 5897 5897 5897 5898 5897 5896 5897 5901 5901 5900 5901 5901 5901 5902 5903 5903 5903 5905 5905 5905 5905 5905 5905 5906 5906 5906 5906 5907 5908 5908 5909 5909 5909 5909 5909 5909 5909 5910
5917 5917 5917 5918 5918 5918 5918 5918 5918 5917 5917 5917 5917 5916 5916 5916 5915 5915 5915 5914 5914 5914 5913 5913 5912 5912 5912 5911 5911 5911 5910 5910 5909 5909 5908 5908 5908 5908 5908 5907 5906 5905 5904 5902 5901 5900 5900 5902 5902 5899 5898 5897 5898 5899 5898 5896 5896 5900 5901 5900 5901 5901 5901 5901 5902 5902 5902 5904 5905 5903 5904 5904 5905 5906 5906 5906 5907 5907 5908 5908 5908 5909 5910 5910 5910 5910 5910 5910
5917 5917 5917 5917 5917 5917 5917 5917 5917 5917 5916 5916 5916 5916 5915 5915 5914 5914 5914 5913 5913 5913 5912 5912 5911 5911 5911 5911 5910 5910 5910 5909 5909 5908 5908 5908 5908 5908 5907 5907 5906 5904 5903 5903 5901 5900 5901 5902 5902 5900 5899 5898 5899 5899 5898 5897 5896 5899 5900 5899 5900 5900 5900 5900 5901 5901 5901 5902 5902 5902 5904 5905 5906 5906 5907 5906 5907 5907 5907 5908 5908 5909 5910 5910 5910 5910 5911 5911
5917 5917 5917 5917 5917 5917 5917 5916 5916 5916 5916 5915 5915 5915 5914 5914 5913 5913 5913 5912 5912 5911 5911 5911 5910 5910 5910 5910 5909 5909 5909 5908 5908 5908 5907 5907 5907 5907 5907 5906 5906 5904 5903 5902 5901 5900 5901 5902 5901 5900 5899 5898 5899 5898 5898 5898 5896 5898 5900 5900 5900 5899 5900 5901 5901 5901 5900 5900 5901 5903 5905 5906 5906 5906 5906 5906 5906 5907 5907 5908 5908 5909 5910 5910 5911 5911 5911 5911
5916 5916 5916 5916 5916 5916 5916 5915 5915 5915 5914 5914 5914 5913 5913 5913 5912 5912 5911 5911 5911 5910 5910 5909 5909 5909 5909 5908 5908 5908 5908 5907 5907 5907 5907 5906 5906 5907 5906 5906 5905 5904 5903 5902 5901 5901 5901 5902 5901 5900 5899 5899 5899 5897 5898 5899 5897 5897 5899 5900 5900 5898 5899 5900 5901 5901 5900 5900 5903 5904 5904 5905 5905 5905 5906 5906 5906 5907 5907 5908 5908 5909 5909 5910 5910 5911 5911 5912
5915 5915 5915 5915 5915 5915 5914 5914 5914 5913 5913 5912 5912 5912 5912 5911 5911 5910 5910 5910 5909 5909 5908 5908 5908 5907 5907 5907 5907 5907 5907 5906 5906 5906 5906 5906 5906 5906 5905 5905 5905 5904 5903 5902 5901 5901 5901 5901 5901 5900 5900 5899 5899 5898 5897 5897 5897 5897 5898 5899 5899 5898 5898 5899 5900 5900 5901 5902 5904 5903 5903 5904 5905 5905 5906 5907 5906 5907 5907 5907 5908 5908 5909 5910 5910 5911 5911 5911
5914 5914 5914 5914 5914 5913 5913 5913 5912 5912 5911 5911 5910 5910 5910 5910 5909 5909 5908 5908 5908 5907 5907 5906 5906 5906 5906 5906 5905 5905 5905 5905 5904 5904 5904 5905 5905 5905 5904 5904 5904 5904 5903 5902 5901 5901 5901 5901 5901 5901 5901 5900 5899 5899 5897 5896 5898 5898 5898 5898 5898 5898 5898 5898 5899 5900 5901 5902 5902 5903 5904 5904 5905 5905 5906 5906 5906 5907 5907 5907 5908 5908 5909 5909 5910 5910 5911 5911
5913 5913 5913 5912 5912 5912 5912 5911 5911 5910 5910 5909 5909 5909 5909 5908 5908 5907 5907 5906 5906 5906 5905 5905 5904 5904 5904 5904 5904 5904 5903 5903 5903 5903 5903 5903 5904 5904 5904 5903 5903 5903 5902 5902 5901 5901 5901 5901 5901 5901 5900 5900 5900 5899 5898 5896 5898 5898 5898 5897 5897 5897 5897 5897 5898 5899 5900 5901 5901 5902 5904 5904 5904 5904 5905 5905 5906 5907 5907 5907 5908 5908 5909 5909 5910 5910 5911 5911
5911 5911 5911 5911 5911 5911 5910 5910 5909 5908 5908 5907 5907 5907 5907 5907 5906 5906 5905 5905 5904 5904 5903 5903 5902 5902 5902 5902 5902 5902 5902 5902 5901 5900 5901 5902 5902 5903 5903 5903 5902 5902 5901 5901 5902 5901 5901 5901 5901 5900 5900 5900 5899 5899 5898 5897 5897 5897 5898 5897 5896 5896 5896 5895 5896 5898 5899 5900 5900 5902 5903 5903 5904 5904 5904 5905 5906 5907 5907 5907 5908 5908 5908 5909 5909 5910 5911 5911
5910 5910 5910 5910 5909 5909 5908 5908 5907 5907 5906 5906 5906 5906 5905 5905 5905 5904 5904 5904 5903 5903 5902 5901 5901 5901 5901 5900 5901 5901 5899 5900 5900 5899 5899 5900 5900 5901 5901 5901 5901 5901 5900 5900 5901 5901 5901 5901 5901 5900 5900 5900 5899 5899 5898 5897 5898 5898 5899 5898 5897 5896 5895 5895 5895 5897 5898 5899 5900 5901 5902 5903 5904 5904 5904 5905 5905 5907 5907 5907 5908 5908 5908 5908 5909 5909 5910 5911
5908 5908 5908 5908 5907 5907 5907 5906 5906 5906 5905 5905 5905 5905 5904 5904 5904 5903 5903 5902 5902 5901 5901 5900 5899 5899 5899 5899 5899 5898 5898 5898 5898 5897 5897 5897 5898 5899 5899 5900 5900 5900 5899 5899 5900 5900 5900 5900 5900 5900 5900 5899 5899 5899 5897 5896 5897 5898 5898 5898 5897 5896 5896 5895 5895 5896 5897 5899 5900 5900 5902 5903 5903 5903 5903 5904 5905 5906 5906 5906 5907 5908 5908 5908 5908 5909 5910 5911
5907 5906 5906 5906 5906 5906 5905 5905 5905 5905 5905 5904 5904 5904 5904 5903 5902 5902 5901 5901 5900 5900 5899 5898 5898 5898 5897 5898 5897 5896 5896 5897 5896 5895 5895 5895 5895 5896 5897 5898 5898 5898 5898 5897 5898 5898 5898 5898 5899 5899 5899 5899 5899 5898 5897 5897 5897 5896 5897 5897 5896 5896 5896 5896 5895 5896 5897 5898 5899 5900 5901 5902 5902 5902 5902 5902 5904 5906 5906 5906 5907 5908 5908 5908 5908 5908 5909 5910
5905 5905 5905 5905 5905 5905 5904 5904 5904 5904 5904 5904 5904 5903 5903 5902 5901 5901 5900 5899 5899 5898 5898 5897 5896 5896 5895 5896 5895 5894 5895 5894 5894 5893 5893 5893 5893 5893 5894 5895 5896 5896 5896 5896 5896 5896 5897 5897 5898 5898 5899 5898 5898 5897 5897 5897 5896 5896 5897 5898 5897 5896 5895 5896 5896 5896 5896 5897 5898 5898 5900 5901 5901 5901 5901 5901 5903 5906 5907 5906 5906 5908 5908 5907 5908 5909 5909 5910
5904 5904 5904 5904 5904 5904 5904 5904 5904 5903 5903 5903 5903 5902 5902 5901 5901 5900 5899 5898 5897 5896 5896 5896 5895 5893 5893 5894 5893 5892 5892 5892 5891 5891 5890 5890 5890 5891 5892 5892 5893 5894 5894 5895 5894 5894 5895 5896 5897 5898 5898 5898 5898 5898 5898 5897 5896 5896 5897 5897 5897 5896 5895 5895 5896 5895 5896 5897 5897 5897 5898 5899 5900 5900 5900 5900 5901 5904 5906 5906 5906 5907 5907 5907 5907 5909 5909 5910
5904 5904 5904 5903 5903 5903 5903 5903 5903 5903 5902 5902 5902 5901 5900 5900 5899 5899 5898 5897 5896 5895 5895 5894 5893 5892 5891 5891 5891 5891 5890 5889 5889 5888 5888 5888 5888 5888 5889 5889 5890 5891 5892 5893 5893 5893 5893 5895 5896 5896 5897 5897 5897 5898 5898 5898 5897 5896 5896 5896 5896 5895 5894 5894 5895 5895 5895 5896 5896 5896 5897 5898 5898 5899 5900 5900 5900 5900 5902 5905 5906 5905 5906 5907 5906 5908 5909 5910
5903 5903 5903 5903 5903 5903 5903 5902 5902 5902 5901 5901 5900 5900 5899 5899 5898 5897 5896 5896 5895 5894 5893 5893 5892 5890 5888 5888 5889 5888 5887 5886 5886 5886 5885 5885 5885 5885 5886 5887 5888 5889 5890 5890 5890 5890 5891 5893 5894 5895 5896 5896 5896 5897 5898 5897 5897 5896 5896 5896 5896 5895 5894 5894 5894 5894 5894 5895 5895 5897 5897 5897 5897 5898 5899 5900 5900 5900 5900 5901 5903 5904 5905 5906 5906 5907 5908 5909
5903 5903 5903 5903 5903 5902 5902 5902 5901 5901 5900 5900 5900 5899 5898 5897 5897 5896 5895 5894 5893 5892 5891 5890 5890 5888 5886 5886 5886 5886 5884 5883 5883 5882 5883 5882 5882 5882 5882 5883 5885 5886 5887 5887 5887 5888 5889 5891 5892 5893 5894 5894 5895 5896 5896 5896 5896 5896 5896 5896 5896 5895 5895 5895 5894 5895 5895 5895 5895 5896 5896 5896 5897 5897 5898 5899 5899 5900 5900 5899 5901 5903 5904 5905 5906 5906 5907 5908
5902 5902 5902 5902 5902 5902 5901 5901 5901 5900 5900 5899 5899 5898 5897 5896 5896 5895 5894 5893 5891 5891 5889 5888 5888 5886 5885 5884 5883 5883 5881 5879 5879 5878 5880 5880 5879 5879 5878 5879 5882 5882 5883 5884 5885 5886 5887 5889 5890 5891 5892 5893 5893 5894 5895 5895 5895 5895 5896 5896 5896 5895 5895 5895 5894 5895 5896 5896 5895 5896 5896 5896 5896 5897 5898 5898 5898 5899 5899 5899 5900 5902 5902 5904 5905 5905 5905 5906
5902 5902 5902 5902 5901 5901 5901 5901 5900 5900 5899 5899 5898 5897 5896 5895 5894 5893 5892 5891 5890 5889 5888 5886 5885 5883 5882 5881 5880 5879 5878 5877 5877 5874 5875 5877 5875 5875 5876 5876 5878 5879 5880 5881 5882 5883 5885 5887 5888 5888 5890 5891 5891 5892 5893 5893 5894 5894 5895 5895 5895 5896 5895 5895 5895 5896 5896 5896 5896 5896 5896 5895 5895 5897 5897 5897 5897 5897 5898 5900 5900 5900 5900 5900 5903 5904 5904 5905
5901 5901 5901 5901 5901 5901 5900 5900 5900 5899 5899 5898 5897 5897 5895 5894 5893 5892 5891 5889 5888 5888 5886 5883 5883 5881 5879 5879 5877 5876 5874 5874 5875 5870 5869 5874 5873 5871 5873 5872 5873 5876 5877 5878 5879 5881 5882 5884 5886 5886 5887 5889 5889 5890 5891 5892 5893 5893 5894 5894 5895 5895 5895 5895 5897 5898 5897 5896 5896 5896 5895 5894 5894 5896 5897 5896 5895 5896 5897 5899 5899 5899 5898 5898 5901 5903 5904 5905
5901 5901 5901 5901 5901 5900 5900 5900 5899 5899 5898 5898 5897 5896 5895 5893 5892 5891 5889 5886 5886 5886 5884 5881 5880 5878 5876 5876 5873 5872 5870 5870 5872 5868 5865 5869 5870 5868 5869 5869 5870 5873 5874 5875 5876 5877 5879 5882 5883 5884 5885 5886 5887 5888 5889 5890 5891 5892 5893 5894 5894 5894 5894 5895 5898 5900 5901 5897 5895 5895 5895 5894 5894 5894 5895 5895 5895 5895 5896 5897 5897 5898 5898 5899 5901 5901 5902 5903
5900 5900 5900 5900 5900 5900 5900 5900 5899 5899 5898 5897 5896 5895 5894 5893 5891 5890 5887 5884 5881 5881 5880 5879 5877 5875 5873 5872 5870 5869 5866 5865 5868 5866 5862 5864 5866 5865 5865 5867 5868 5869 5871 5872 5873 5874 5877 5879 5880 5881 5882 5884 5885 5887 5887 5888 5890 5891 5892 5893 5893 5893 5893 5895 5897 5899 5900 5897 5894 5895 5894 5894 5894 5893 5893 5895 5895 5895 5895 5895 5896 5897 5898 5900 5901 5901 5900 5901
5900 5900 5900 5900 5900 5900 5899 5899 5899 5898 5897 5896 5895 5894 5893 5891 5890 5888 5886 5884 5880 5878 5876 5875 5874 5872 5869 5868 5867 5865 5863 5863 5863 5860 5858 5861 5862 5861 5863 5864 5865 5867 5867 5868 5870 5872 5875 5878 5879 5879 5880 5882 5883 5885 5886 5887 5888 5890 5891 5892 5892 5892 5892 5893 5895 5895 5896 5895 5894 5894 5894 5894 5894 5892 5892 5893 5895 5895 5894 5894 5896 5896 5896 5898 5900 5900 5901 5901
5900 5900 5900 5900 5899 5899 5899 5899 5898 5897 5896 5896 5894 5893 5892 5890 5889 5887 5885 5883 5880 5877 5875 5872 5871 5870 5867 5865 5864 5862 5860 5861 5860 5856 5855 5858 5859 5859 5860 5861 5862 5864 5864 5865 5867 5870 5873 5875 5877 5877 5877 5880 5882 5882 5884 5885 5887 5888 5889 5890 5890 5891 5891 5891 5892 5893 5892 5892 5893 5893 5893 5894 5893 5892 5892 5892 5893 5894 5894 5894 5895 5896 5895 5897 5898 5899 5900 5901
5900 5900 5899 5899 5899 5899 5898 5898 5897 5896 5896 5895 5893 5892 5890 5889 5887 5885 5883 5881 5878 5875 5873 5869 5866 5865 5864 5862 5860 5858 5857 5858 5857 5854 5853 5855 5856 5857 5858 5858 5860 5861 5861 5863 5864 5867 5869 5870 5871 5873 5874 5877 5879 5879 5881 5882 5885 5886 5887 5888 5889 5889 5890 5890 5891 5891 5891 5891 5891 5892 5893 5893 5893 5893 5892 5893 5892 5893 5894 5893 5893 5894 5895 5896 5898 5898 5898 5900
5899 5899 5899 5899 5898 5898 5897 5897 5896 5895 5895 5894 5892 5891 5889 5887 5886 5884 5882 5880 5878 5875 5871 5867 5863 5861 5861 5861 5859 5857 5855 5855 5854 5852 5852 5852 5852 5854 5855 5855 5857 5858 5859 5861 5862 5864 5866 5867 5868 5870 5870 5872 5875 5876 5878 5881 5883 5885 5886 5887 5888 5888 5888 5889 5889 5890 5890 5890 5891 5892 5893 5893 5894 5893 5893 5893 5892 5891 5892 5892 5892 5893 5894 5895 5896 5897 5898 5899
5899 5899 5899 5898 5898 5897 5897 5896 5895 5894 5894 5893 5891 5890 5888 5886 5884 5882 5880 5878 5877 5874 5871 5867 5864 5862 5860 5860 5860 5858 5856 5855 5854 5853 5852 5851 5850 5851 5852 5854 5854 5855 5858 5860 5862 5863 5864 5865 5867 5868 5868 5870 5873 5876 5877 5880 5881 5883 5885 5885 5886 5887 5887 5888 5889 5889 5889 5890 5890 5891 5892 5892 5893 5893 5892 5892 5891 5890 5890 5891 5892 5892 5893 5893 5894 5895 5897 5898
5898 5898 5898 5898 5897 5896 5896 5895 5894 5893 5892 5891 5890 5888 5886 5884 5883 5881 5878 5876 5875 5873 5869 5865 5864 5863 5860 5859 5860 5859 5859 5857 5854 5853 5852 5850 5849 5848 5849 5852 5852 5853 5857 5859 5860 5862 5862 5863 5865 5866 5867 5868 5872 5875 5876 5879 5881 5881 5883 5884 5885 5885 5886 5887 5888 5888 5889 5889 5890 5890 5891 5892 5892 5892 5892 5893 5893 5891 5889 5890 5893 5893 5892 5892 5893 5894 5896 5897
5898 5898 5897 5897 5896 5895 5895 5894 5893 5892 5891 5890 5888 5887 5885 5883 5881 5880 5878 5874 5872 5871 5868 5864 5862 5861 5859 5859 5860 5857 5857 5857 5854 5852 5851 5849 5849 5848 5848 5850 5850 5851 5855 5857 5858 5860 5861 5862 5863 5865 5866 5865 5868 5872 5874 5877 5880 5880 5881 5882 5883 5884 5885 5886 5887 5888 5889 5889 5888 5889 5890 5891 5892 5891 5892 5894 5895 5892 5889 5888 5890 5892 5892 5891 5891 5893 5894 5896
5897 5897 5896 5896 5895 5894 5894 5893 5892 5891 5890 5889 5887 5885 5884 5881 5878 5877 5875 5872 5870 5868 5865 5862 5860 5859 5858 5859 5858 5854 5854 5855 5852 5850 5850 5849 5849 5849 5848 5849 5850 5850 5852 5854 5856 5858 5859 5861 5862 5864 5865 5865 5866 5868 5871 5874 5877 5879 5879 5880 5881 5883 5884 5885 5886 5888 5889 5889 5888 5889 5890 5891 5890 5890 5891 5893 5894 5894 5892 5888 5886 5888 5891 5891 5891 5892 5893 5894
5896 5896 5896 5895 5894 5893 5892 5892 5891 5890 5889 5887 5885 5883 5882 5880 5877 5875 5873 5870 5868 5865 5863 5861 5858 5858 5860 5860 5858 5853 5851 5851 5850 5848 5848 5848 5848 5847 5846 5847 5848 5848 5850 5853 5855 5856 5858 5858 5859 5862 5864 5865 5865 5866 5868 5871 5874 5877 5878 5879 5880 5882 5883 5884 5885 5886 5887 5888 5888 5888 5890 5890 5888 5889 5891 5892 5893 5893 5891 5888 5886 5886 5888 5891 5892 5893 5892 5892
5895 5895 5894 5894 5893 5892 5891 5890 5890 5889 5887 5886 5884 5882 5879 5878 5876 5873 5871 5868 5866 5863 5861 5860 5858 5857 5858 5859 5858 5854 5850 5849 5849 5848 5847 5847 5846 5845 5844 5845 5846 5846 5847 5850 5852 5854 5855 5855 5857 5860 5862 5863 5864 5865 5865 5867 5871 5874 5875 5878 5880 5881 5882 5883 5884 5885 5886 5887 5888 5888 5889 5889 5889 5890 5891 5890 5891 5890 5887 5887 5887 5886 5886 5890 5892 5892 5892 5892
5894 5894 5893 5893 5892 5891 5890 5889 5888 5887 5886 5884 5883 5881 5879 5876 5874 5871 5869 5866 5864 5861 5858 5857 5856 5854 5854 5856 5854 5850 5847 5847 5847 5847 5847 5846 5843 5843 5843 5844 5844 5845 5845 5846 5848 5850 5851 5852 5855 5857 5859 5862 5863 5864 5864 5865 5868 5871 5874 5877 5879 5879 5880 5881 5882 5884 5885 5886 5887 5888 5888 5889 5889 5890 5891 5890 5890 5888 5885 5886 5887 5886 5885 5888 5890 5891 5891 5891
5893 5893 5892 5891 5891 5890 5889 5888 5886 5885 5884 5882 5880 5878 5876 5873 5872 5869 5866 5864 5862 5860 5857 5855 5853 5851 5850 5850 5849 5846 5845 5844 5844 5843 5845 5844 5841 5841 5842 5842 5843 5844 5845 5846 5847 5847 5847 5848 5851 5853 5856 5860 5861 5861 5864 5865 5866 5869 5872 5875 5877 5877 5878 5880 5881 5883 5884 5885 5887 5887 5888 5889 5889 5890 5891 5889 5887 5885 5885 5886 5886 5885 5884 5885 5887 5889 5890 5890
5892 5891 5891 5890 5890 5889 5887 5886 5885 5883 5882 5881 5878 5876 5873 5871 5869 5867 5864 5862 5860 5858 5855 5853 5852 5850 5848 5846 5845 5844 5843 5842 5841 5841 5842 5841 5838 5838 5839 5839 5841 5842 5843 5845 5846 5846 5846 5847 5849 5851 5853 5857 5860 5860 5862 5865 5867 5868 5870 5873 5875 5876 5878 5879 5880 5882 5884 5885 5886 5887 5887 5887 5888 5888 5888 5886 5883 5883 5884 5885 5885 5885 5884 5883 5883 5885 5888 5890
5891 5890 5890 5889 5888 5887 5886 5885 5883 5882 5880 5878 5877 5875 5873 5870 5867 5865 5863 5860 5858 5856 5854 5851 5849 5848 5846 5844 5843 5842 5840 5839 5839 5839 5839 5838 5835 5835 5836 5836 5837 5839 5840 5843 5844 5843 5843 5845 5847 5849 5851 5854 5859 5860 5861 5864 5868 5869 5869 5871 5874 5876 5878 5879 5879 5881 5883 5884 5885 5886 5886 5886 5886 5885 5883 5882 5881 5881 5884 5885 5884 5884 5883 5883 5884 5884 5885 5887
5889 5889 5888 5888 5887 5886 5885 5883 5882 5880 5878 5876 5875 5873 5871 5868 5866 5864 5861 5858 5856 5853 5851 5849 5847 5845 5844 5843 5841 5840 5838 5837 5837 5836 5836 5836 5834 5833 5834 5834 5834 5836 5837 5839 5839 5838 5838 5843 5846 5848 5848 5849 5854 5859 5861 5862 5866 5869 5870 5871 5872 5875 5877 5879 5879 5881 5882 5883 5884 5884 5884 5883 5883 5882 5881 5882 5882 5881 5883 5884 5883 5882 5882 5883 5885 5884 5883 5884
5888 5888 5887 5886 5885 5884 5883 5882 5881 5879 5877 5875 5873 5871 5869 5867 5864 5862 5859 5856 5854 5851 5849 5847 5845 5843 5842 5841 5840 5838 5836 5835 5834 5834 5834 5833 5831 5831 5832 5832 5832 5833 5834 5834 5835 5835 5837 5842 5845 5846 5847 5847 5849 5855 5860 5861 5863 5868 5870 5871 5872 5874 5876 5877 5879 5880 5881 5882 5882 5882 5883 5881 5880 5881 5882 5883 5883 5881 5881 5882 5883 5884 5883 5883 5884 5883 5883 5884
5887 5886 5885 5885 5884 5882 5881 5880 5879 5878 5876 5874 5872 5869 5868 5866 5863 5860 5857 5854 5851 5849 5847 5845 5843 5841 5839 5839 5838 5836 5835 5834 5832 5832 5831 5831 5829 5829 5829 5829 5830 5830 5830 5831 5832 5833 5836 5839 5841 5844 5846 5848 5849 5852 5858 5861 5863 5867 5870 5871 5872 5874 5876 5877 5879 5879 5879 5881 5881 5882 5882 5880 5878 5880 5881 5881 5882 5880 5879 5881 5885 5886 5885 5885 5883 5881 5881 5882
5885 5885 5884 5883 5882 5881 5880 5878 5877 5876 5874 5873 5871 5868 5865 5863 5861 5858 5855 5852 5850 5847 5845 5843 5841 5840 5838 5837 5836 5835 5833 5832 5831 5830 5829 5828 5827 5827 5826 5826 5827 5825 5826 5829 5830 5831 5833 5833 5836 5841 5843 5846 5848 5849 5851 5855 5858 5863 5867 5870 5871 5872 5874 5876 5878 5878 5878 5878 5879 5880 5880 5877 5877 5879 5878 5878 5880 5879 5878 5880 5884 5886 5886 5886 5884 5882 5882 5878
5884 5883 5882 5881 5880 5879 5878 5877 5875 5874 5872 5870 5869 5866 5863 5860 5858 5856 5853 5851 5848 5846 5844 5842 5839 5837 5836 5835 5834 5833 5831 5830 5829 5828 5827 5826 5825 5824 5823 5824 5824 5823 5825 5827 5828 5828 5829 5830 5834 5837 5839 5843 5847 5847 5848 5851 5853 5857 5861 5866 5869 5870 5872 5874 5876 5878 5878 5877 5877 5878 5877 5875 5877 5877 5875 5877 5880 5879 5879 5881 5882 5883 5883 5884 5883 5882 5882 5874
5882 5881 5880 5880 5879 5878 5877 5875 5874 5872 5871 5868 5866 5864 5862 5859 5856 5854 5852 5849 5847 5844 5842 5841 5838 5836 5834 5833 5832 5831 5830 5828 5827 5826 5825 5825 5823 5822 5822 5822 5822 5822 5823 5825 5825 5826 5826 5828 5832 5835 5837 5843 5846 5847 5848 5849 5849 5851 5854 5860 5865 5869 5871 5872 5874 5876 5875 5876 5877 5876 5874 5874 5875 5876 5874 5875 5878 5879 5880 5880 5880 5879 5880 5881 5881 5881 5881 5874
5880 5880 5879 5878 5877 5876 5875 5874 5872 5871 5869 5867 5865 5863 5860 5858 5855 5852 5850 5847 5845 5842 5840 5838 5837 5834 5833 5831 5830 5829 5828 5827 5825 5824 5823 5822 5821 5821 5821 5820 5820 5820 5821 5822 5822 5823 5823 5826 5830 5833 5836 5839 5841 5844 5846 5846 5846 5848 5850 5855 5862 5867 5869 5869 5872 5874 5873 5875 5876 5874 5873 5873 5874 5874 5872 5872 5875 5877 5877 5878 5878 5877 5878 5879 5879 5880 5880 5876
5879 5878 5877 5876 5875 5874 5873 5872 5871 5869 5867 5866 5864 5861 5859 5856 5854 5851 5848 5845 5843 5841 5838 5836 5834 5833 5831 5829 5828 5827 5826 5825 5823 5822 5821 5820 5820 5819 5819 5819 5818 5818 5820 5820 5819 5819 5821 5824 5826 5829 5831 5833 5836 5840 5843 5844 5846 5848 5849 5854 5859 5864 5868 5868 5870 5873 5873 5873 5874 5873 5873 5873 5873 5873 5871 5871 5873 5873 5873 5874 5876 5877 5878 5878 5878 5878 5879 5878
5877 5876 5875 5875 5874 5873 5872 5870 5869 5867 5866 5864 5861 5859 5857 5854 5852 5849 5847 5844 5841 5839 5837 5834 5832 5831 5829 5827 5826 5825 5824 5823 5821 5820 5819 5818 5818 5817 5817 5817 5817 5817 5817 5817 5817 5818 5820 5821 5823 5825 5828 5832 5836 5838 5840 5843 5846 5848 5849 5851 5853 5858 5863 5867 5871 5872 5872 5873 5873 5873 5873 5872 5872 5871 5870 5871 5871 5869 5870 5874 5876 5879 5879 5878 5877 5878 5878 5878
5875 5875 5874 5873 5872 5871 5870 5868 5867 5865 5863 5862 5859 5857 5855 5853 5850 5847 5845 5842 5840 5837 5835 5833 5831 5829 5827 5825 5824 5822 5821 5821 5819 5818 5817 5816 5816 5815 5815 5815 5815 5815 5815 5815 5816 5817 5818 5819 5821 5822 5825 5830 5834 5837 5840 5843 5846 5847 5847 5847 5848 5852 5856 5862 5868 5870 5868 5868 5871 5872 5872 5870 5869 5868 5870 5870 5869 5870 5873 5876 5877 5878 5878 5876 5876 5877 5877 5878
5874 5873 5872 5871 5870 5869 5868 5866 5865 5863 5861 5860 5858 5855 5853 5851 5848 5845 5843 5841 5838 5836 5833 5831 5829 5827 5824 5823 5821 5820 5819 5818 5817 5816 5815 5814 5813 5813 5813 5813 5813 5813 5813 5813 5815 5816 5816 5818 5819 5820 5824 5829 5832 5835 5838 5840 5842 5844 5845 5844 5847 5851 5853 5855 5859 5861 5859 5862 5866 5868 5867 5865 5864 5866 5869 5869 5868 5872 5875 5875 5875 5875 5875 5875 5875 5875 5876 5876